Regional Weather Roundup
Issued by NWS

Home | Current Version | Previous Version | Graphics & Text | Print | Product List | Glossary On
Versions: 1 2 3 4 5 6 7 8 9 10 11 12 13 14 15 16 17 18 19 20 21 22 23 24 25 26 27 28 29 30 31 32 33 34 35 36 37 38 39 40 41 42 43 44 45 46 47 48 49 50
763
ASUS43 KLOT 281508
RWRIL

ILLINOIS REGIONAL WEATHER ROUNDUP
NATIONAL WEATHER SERVICE CHICAGO/ROMEOVILLE IL
1000 AM CDT SAT MAY 28 2016

NOTE: "FAIR" INDICATES FEW OR NO CLOUDS BELOW 12,000 FEET WITH NO
SIGNIFICANT WEATHER AND/OR OBSTRUCTIONS TO VISIBILITY.

* THESE STATIONS ARE NOT UNDER NWS QUALITY CONTROL. THEY ALSO MAY NOT
  REPORT WEATHER SUCH AS PRECIPITATION OR FOG.

ILZ001-002-007-009-015-016-024-281600-
NORTHWEST ILLINOIS

CITY           SKY/WX    TMP DP  RH WIND       PRES   REMARKS
MOLINE         PTSUNNY   76  65  68 S15G26    29.84R
STERLING*      CLOUDY    74  68  81 VRB6G17   29.87R
SAVANNA*       PTSUNNY   74  68  81 S15G23    29.84S
$$

ILZ003-004-008-010-011-017-018-281600-
NORTH CENTRAL ILLINOIS

CITY           SKY/WX    TMP DP  RH WIND       PRES   REMARKS
ROCKFORD       CLOUDY    74  65  73 SW16G26   29.89R
FREEPORT*      CLOUDY    71  67  85 S16G24    29.87S
ROCHELLE*      CLOUDY    73  66  79 SW20      29.89R
DE KALB*       CLOUDY    74  68  81 S21G26    29.90S
$$

ILZ005-006-012>014-019>023-281600-
NORTHEAST ILLINOIS

CITY           SKY/WX    TMP DP  RH WIND       PRES   REMARKS
CHICAGO-OHARE  CLOUDY    74  65  73 S15G24    29.90R
CHICAGO-MIDWAY CLOUDY    76  64  66 S16G23    29.91R
AURORA         CLOUDY    75  66  73 S18       29.91R
LANSING*       CLOUDY    76  66  71 S16G23    29.94S
JOLIET*        CLOUDY    74  67  78 S13G21    29.93R
WAUKEGAN       CLOUDY    74  66  76 S15       29.89R
DUPAGE AIRPORT CLOUDY    73  65  75 S16G22    29.90R
KANKAKEE*      CLOUDY    74  66  77 S15G24    29.96R
WHEELING       CLOUDY    74  65  73 S17       29.91R
MORRIS*        CLOUDY    73  65  76 S14G22    29.91S
ROMEOVILLE*    CLOUDY    73  64  72 S20       29.92S
NORTHERLY ISL    N/A     73  62  68 S15         N/A
NORTHERLY ISL    N/A     73  62  68 S15         N/A
$$

LMZ740>746-281600-
SOUTHERN LAKE MICHIGAN

STATION/POSITION SKY/WX   TEMP    WIND        PRES    VSBY  WAVE
                          AIR SEA DIR/SP/G                  HT/PER
                          (F)     (DEG/KT/KT) (MB)    (MI)  (FT/S)
SOUTHERN BUOY              56 50  160/ 12/ 14 1012.4R         2/ 3
WILMETTE HARBOR            65 54  220/ 10/ 14   N/A           2/ 3
HARRISON CRIB              72     200/ 23/ 25   N/A
BURNHAM HARBOR             73     200/ 15/ 19   N/A
CALUMET HARBOR             73     190/ 12/ 21 1012.5R
BURNS HARBOR               73     200/ 15/ 26 1013.5R
MICHIGAN CITY              73     180/ 17/ 22   N/A
MICHIGAN CITY 6N           69 58  200/ 14/ 19   N/A           2/ 3
ST. JOSEPH                 68 61  190/ 10/ 14   N/A           2/ 3
$$

ILZ025>027-034>036-040-047-049-050-058-095>099-281600-
WEST-CENTRAL ILLINOIS

CITY           SKY/WX    TMP DP  RH WIND       PRES   REMARKS
QUINCY         PTSUNNY   73  65  75 S13       29.88R
GALESBURG*     PTSUNNY   72  66  81 S15G21    29.88R
MACOMB*        PTSUNNY   72  66  81 SW13G18   29.90S
JACKSONVILLE*  PTSUNNY   73  66  78 S12       29.91S
PITTSFIELD*    MOSUNNY   73  67  81 S13       29.91S
$$

ILZ028>032-037-038-041>044-048-051>054-059>061-281600-
CENTRAL ILLINOIS

CITY           SKY/WX    TMP DP  RH WIND       PRES   REMARKS
PONTIAC        CLOUDY    75  68  77 S21       29.94S
BLOOMINGTON    CLOUDY    72  68  87 S18       29.95R
DECATUR        CLOUDY    72  65  78 S18G24    29.95S
PEORIA         CLOUDY    72  65  78 S15       29.91R
LACON*         CLOUDY    73  65  77 SW10G16   29.89R
LINCOLN*       CLOUDY    73  67  81 S12G18    29.93F
SPRINGFIELD    CLOUDY    74  66  76 S16       29.93S
TAYLORVILLE    CLOUDY    70  66  86 S13G20    29.95S
$$

ILZ033-039-045-046-055>057-062-063-281600-
EAST-CENTRAL ILLINOIS

CITY           SKY/WX    TMP DP  RH WIND       PRES   REMARKS
CHAMPAIGN      CLOUDY    72  66  81 S18       29.97R
RANTOUL*       CLOUDY    74  68  81 S15G24    29.97R
MATTOON        LGT RAIN  71  64  78 S14G24    29.97S
PARIS*         CLOUDY    73  67  82 S10       30.01R
$$

ILZ079-100>102-281600-
SOUTHWEST ILLINOIS

CITY           SKY/WX    TMP DP  RH WIND       PRES   REMARKS
BELLEVILLE     CLOUDY    76  71  84 VRB7      29.93F
CAHOKIA*       MOSUNNY   75  65  70 S12G20    29.93S
SPARTA*        CLOUDY    71  67  88 S8        29.97S
$$

ILZ064>066-069>071-074>076-080>082-084>086-088>090-092>094-281600-
SOUTH-CENTRAL ILLINOIS

CITY           SKY/WX    TMP DP  RH WIND       PRES   REMARKS
CARBONDALE     LGT RAIN  71  66  84 S8        29.98S
CAIRO*         LGT RAIN  73  68  84 S9        30.00R
EFFINGHAM*     CLOUDY    72  69  90 S8        29.99F
MARION         CLOUDY    73  68  83 S12       30.01R
MT. VERNON     CLOUDY    72  64  78 S8        29.99F
CENTRALIA*     CLOUDY    72  69  90 S10       29.97S
SALEM*         CLOUDY    73  67  81 S9        29.97S
METROPOLIS*    CLOUDY    77  70  77 SE7       30.01S
$$

ILZ067-068-072-073-078-083-087-091-281600-
SOUTHEAST ILLINOIS

CITY           SKY/WX    TMP DP  RH WIND       PRES   REMARKS
LAWRENCEVILLE  CLOUDY    76  67  73 S13       30.02S
FLORA*         CLOUDY    74  68  81 S15       29.99S
FAIRFIELD*     PTSUNNY   74  67  78 S8        29.99F
HARRISBURG*    CLOUDY    75  69  81 S7        30.00S
ROBINSON*      CLOUDY    73  67  80 S9        30.02S
CARMI*         CLOUDY    75  68  78 SE15      30.00F
$$

ABBREVIATIONS USED IN REMARKS
   TC - TEMPERATURE IN CELSIUS
  WCI - WIND CHILL INDEX
   HX - HEAT INDEX
  VSB - VISIBILITY
$$





USA.gov is the U.S. government's official web portal to all federal, state and local government web resources and services.